Location: Azenweiler
(47.8027°N, 9.4096°E)
Time: 03:10:36
(UTC+00:00)

Cosmos 1626 Rocket - Pass Details

Date: 17 March 2026
Orbit: 596 x 624 km, 82.5° (Epoch: 13 April)

Event Time Altitude Azimuth Distance (km) Brightness Sun altitude
Rises 03:36:42 0° 353° (N) 2,898 7.2 -19.8°
Reaches altitude 10° 03:38:58 10° 356° (N) 1,983 6.3 -19.4°
Maximum altitude 03:43:19 65° 79° (ENE) 675 3.9 -18.7°
Drops below altitude 10° 03:47:36 10° 161° (SSE) 1,949 6.1 -18.1°
Sets 03:49:49 0° 165° (SSE) 2,843 6.9 -17.7°
